ANA79 RJTT-RJCC

Flight info

Callsign ANA79
Flight time 1h 15m
Altitude 39000
Route BRUCE AGRIS Y11 SAMBO Y119 OHMAR Y13 SIRAO Y139 NAVER
Aircraft B772/H-SDE2E3FGHIJ5LORVWXY/LB1D1

Departure

Time 2026-02-17 11:35
Airport Tokyo Haneda International Airport (RJTT)

Arrival

Time 2026-02-17 12:51
Airport New Chitose Airport (RJCC)
Time Latitude Longitude Altitude Speed Heading
2026-02-17 11:21 35.55406 139.78804 32 ft 0 kts 284°
2026-02-17 11:21 35.55405 139.78809 32 ft 2 kts 284°
2026-02-17 11:21 35.55402 139.78826 31 ft 2 kts 284°
2026-02-17 11:21 35.55398 139.78844 30 ft 2 kts 284°
2026-02-17 11:22 35.55394 139.78862 28 ft 2 kts 284°
2026-02-17 11:22 35.55391 139.78880 31 ft 2 kts 283°
2026-02-17 11:22 35.55390 139.78898 31 ft 2 kts 257°
2026-02-17 11:23 35.55400 139.78932 30 ft 2 kts 240°
2026-02-17 11:23 35.55407 139.78948 31 ft 2 kts 239°
2026-02-17 11:23 35.55410 139.78954 30 ft 0 kts 238°
2026-02-17 11:26 35.55409 139.78953 30 ft 2 kts 238°
2026-02-17 11:26 35.55392 139.78936 30 ft 5 kts 209°
2026-02-17 11:26 35.55349 139.78936 32 ft 9 kts 164°
2026-02-17 11:27 35.55210 139.79030 32 ft 13 kts 149°
2026-02-17 11:27 35.55136 139.79082 32 ft 9 kts 150°
2026-02-17 11:27 35.55080 139.79121 32 ft 9 kts 150°
2026-02-17 11:27 35.55035 139.79175 32 ft 9 kts 108°
2026-02-17 11:28 35.55051 139.79249 31 ft 8 kts 62°
2026-02-17 11:28 35.55080 139.79312 30 ft 9 kts 61°
2026-02-17 11:28 35.55109 139.79375 29 ft 9 kts 61°
2026-02-17 11:28 35.55104 139.79443 30 ft 9 kts 125°
2026-02-17 11:29 35.55057 139.79487 30 ft 9 kts 148°
2026-02-17 11:29 35.55006 139.79524 31 ft 9 kts 150°
2026-02-17 11:29 35.54954 139.79561 30 ft 9 kts 150°
2026-02-17 11:29 35.54897 139.79601 30 ft 10 kts 150°
2026-02-17 11:30 35.54840 139.79642 30 ft 9 kts 150°
2026-02-17 11:30 35.54782 139.79683 30 ft 10 kts 150°
2026-02-17 11:30 35.54716 139.79730 29 ft 11 kts 150°
2026-02-17 11:31 35.54579 139.79826 28 ft 11 kts 150°
2026-02-17 11:31 35.54508 139.79877 26 ft 13 kts 150°
2026-02-17 11:31 35.54430 139.79931 26 ft 13 kts 150°
2026-02-17 11:31 35.54354 139.79986 28 ft 13 kts 149°
2026-02-17 11:32 35.54277 139.80041 30 ft 13 kts 151°
2026-02-17 11:32 35.54198 139.80096 29 ft 13 kts 150°
2026-02-17 11:32 35.54117 139.80154 28 ft 14 kts 150°
2026-02-17 11:32 35.54036 139.80212 27 ft 12 kts 149°
2026-02-17 11:33 35.53977 139.80254 28 ft 10 kts 149°
2026-02-17 11:33 35.53924 139.80302 30 ft 10 kts 127°
2026-02-17 11:33 35.53924 139.80376 33 ft 10 kts 63°
2026-02-17 11:33 35.53956 139.80439 36 ft 9 kts 57°
2026-02-17 11:34 35.53985 139.80476 38 ft 5 kts 24°
2026-02-17 11:34 35.54023 139.80470 37 ft 6 kts 340°
2026-02-17 11:34 35.54064 139.80444 36 ft 7 kts 329°
2026-02-17 11:35 35.54429 139.80187 32 ft 89 kts 330°
2026-02-17 11:35 35.55184 139.79659 44 ft 157 kts 331°
2026-02-17 11:35 35.56135 139.78957 740 ft 160 kts 331°
2026-02-17 11:35 35.57126 139.78245 1550 ft 169 kts 333°
2026-02-17 11:36 35.58166 139.77530 2483 ft 173 kts 334°
2026-02-17 11:36 35.59307 139.77112 3269 ft 175 kts
2026-02-17 11:36 35.60361 139.77718 4023 ft 175 kts 50°
2026-02-17 11:36 35.61155 139.78963 4585 ft 195 kts 53°
2026-02-17 11:37 35.62041 139.80339 5128 ft 218 kts 52°
2026-02-17 11:37 35.63023 139.81869 5765 ft 236 kts 52°
2026-02-17 11:37 35.64069 139.83498 6513 ft 248 kts 48°
2026-02-17 11:37 35.65498 139.84751 7001 ft 263 kts 13°
2026-02-17 11:38 35.67310 139.85192 7690 ft 269 kts
2026-02-17 11:38 35.69176 139.85555 8565 ft 272 kts 359°
2026-02-17 11:38 35.71001 139.85170 9413 ft 265 kts 329°
2026-02-17 11:39 35.74015 139.82611 11058 ft 268 kts 320°
2026-02-17 11:39 35.75844 139.81686 11244 ft 309 kts 348°
2026-02-17 11:39 35.78104 139.82035 11475 ft 348 kts 15°
2026-02-17 11:39 35.80344 139.83258 12037 ft 363 kts 20°
2026-02-17 11:40 35.82668 139.84572 12856 ft 370 kts 19°
2026-02-17 11:40 35.85050 139.85843 13798 ft 375 kts 17°
2026-02-17 11:40 35.87470 139.87089 14634 ft 379 kts 16°
2026-02-17 11:40 35.89951 139.88075 15031 ft 373 kts
2026-02-17 11:41 35.92489 139.87954 15240 ft 362 kts 338°
2026-02-17 11:41 35.94841 139.86966 16194 ft 354 kts 331°
2026-02-17 11:41 35.97142 139.85902 17133 ft 353 kts 335°
2026-02-17 11:41 35.99679 139.85573 17769 ft 382 kts 356°
2026-02-17 11:42 36.02261 139.86385 18458 ft 400 kts 13°
2026-02-17 11:42 36.04953 139.87692 18996 ft 410 kts 14°
2026-02-17 11:42 36.07582 139.88985 19704 ft 413 kts 13°
2026-02-17 11:43 36.12969 139.91581 21167 ft 419 kts 12°
2026-02-17 11:43 36.15707 139.92866 21827 ft 423 kts 12°
2026-02-17 11:43 36.18478 139.94159 22469 ft 425 kts 10°
2026-02-17 11:43 36.21310 139.95024 23033 ft 412 kts 353°
2026-02-17 11:44 36.24114 139.94960 23629 ft 403 kts 346°
2026-02-17 11:44 36.26942 139.94826 24222 ft 409 kts 347°
2026-02-17 11:44 36.29796 139.94733 24873 ft 412 kts 347°
2026-02-17 11:44 36.32676 139.94644 25515 ft 414 kts 347°
2026-02-17 11:45 36.35562 139.94544 26113 ft 418 kts 346°
2026-02-17 11:45 36.38492 139.94435 26689 ft 421 kts 346°
2026-02-17 11:45 36.41431 139.94321 27239 ft 425 kts 346°
2026-02-17 11:45 36.44422 139.94283 27771 ft 433 kts 348°
2026-02-17 11:46 36.47453 139.94384 28295 ft 439 kts 350°
2026-02-17 11:46 36.50519 139.94544 28813 ft 443 kts 350°
2026-02-17 11:46 36.53614 139.94715 29300 ft 447 kts 350°
2026-02-17 11:47 36.59868 139.95026 30222 ft 453 kts 349°
2026-02-17 11:47 36.63031 139.95166 30587 ft 456 kts 349°
2026-02-17 11:47 36.66218 139.95300 30934 ft 460 kts 349°
2026-02-17 11:47 36.69427 139.95434 31273 ft 463 kts 349°
2026-02-17 11:48 36.72660 139.95569 31614 ft 466 kts 349°
2026-02-17 11:48 36.75912 139.95706 31962 ft 469 kts 349°
2026-02-17 11:48 36.79092 139.95842 32288 ft 472 kts 349°
2026-02-17 11:48 36.82391 139.95980 32589 ft 475 kts 349°
2026-02-17 11:49 36.85706 139.96128 32873 ft 479 kts 351°
2026-02-17 11:49 36.89069 139.96517 33138 ft 493 kts 356°
2026-02-17 11:49 36.92475 139.97326 33412 ft 502 kts
2026-02-17 11:49 36.95900 139.98279 33666 ft 506 kts
2026-02-17 11:50 36.99340 139.99238 33933 ft 507 kts
2026-02-17 11:50 37.02747 140.00142 34211 ft 507 kts
2026-02-17 11:50 37.06250 140.01043 34509 ft 507 kts 360°
2026-02-17 11:51 37.13112 140.02803 35132 ft 505 kts 360°
2026-02-17 11:51 37.16565 140.03691 35405 ft 506 kts 360°
2026-02-17 11:51 37.20012 140.04580 35682 ft 506 kts 360°
2026-02-17 11:51 37.23458 140.05470 35965 ft 505 kts 360°
2026-02-17 11:52 37.26903 140.06361 36248 ft 505 kts 360°
2026-02-17 11:52 37.30348 140.07254 36522 ft 506 kts 360°
2026-02-17 11:52 37.33794 140.08148 36796 ft 505 kts 360°
2026-02-17 11:52 37.37236 140.09042 37076 ft 505 kts 359°
2026-02-17 11:53 37.40677 140.09935 37353 ft 505 kts 360°
2026-02-17 11:53 37.44117 140.10831 37621 ft 505 kts 360°
2026-02-17 11:53 37.47558 140.11728 37874 ft 505 kts 360°
2026-02-17 11:53 37.51000 140.12626 38122 ft 505 kts 359°
2026-02-17 11:54 37.54396 140.13511 38368 ft 505 kts 359°
2026-02-17 11:54 37.57844 140.14405 38618 ft 505 kts 359°
2026-02-17 11:54 37.61284 140.15295 38867 ft 505 kts 359°
2026-02-17 11:55 37.68175 140.17090 39100 ft 507 kts 359°
2026-02-17 11:55 37.71583 140.17983 39145 ft 506 kts 360°
2026-02-17 11:55 37.78482 140.19799 39156 ft 504 kts 360°
2026-02-17 11:56 37.85337 140.21605 39172 ft 502 kts 360°
2026-02-17 11:56 37.92182 140.23406 39173 ft 502 kts 360°
2026-02-17 11:57 37.99030 140.25209 39182 ft 502 kts 360°
2026-02-17 11:57 38.05879 140.27019 39176 ft 502 kts
2026-02-17 11:58 38.12686 140.28823 39160 ft 502 kts
2026-02-17 11:59 38.22965 140.31552 39166 ft 503 kts
2026-02-17 11:59 38.29816 140.33375 39171 ft 503 kts
2026-02-17 12:00 38.36676 140.35205 39173 ft 503 kts
2026-02-17 12:00 38.43527 140.37155 39171 ft 507 kts
2026-02-17 12:01 38.50386 140.39402 39170 ft 509 kts
2026-02-17 12:01 38.57243 140.41670 39164 ft 508 kts
2026-02-17 12:02 38.62944 140.43522 39160 ft 508 kts
2026-02-17 12:02 38.70909 140.46087 39172 ft 507 kts
2026-02-17 12:03 38.81187 140.49404 39181 ft 508 kts
2026-02-17 12:03 38.86889 140.51252 39172 ft 507 kts
2026-02-17 12:04 38.93743 140.53477 39176 ft 507 kts
2026-02-17 12:04 39.00589 140.55704 39165 ft 507 kts
2026-02-17 12:05 39.07424 140.57935 39168 ft 507 kts
2026-02-17 12:05 39.14269 140.60179 39175 ft 507 kts
2026-02-17 12:06 39.21106 140.62426 39171 ft 507 kts
2026-02-17 12:07 39.31219 140.65756 39177 ft 507 kts
2026-02-17 12:07 39.38048 140.68009 39184 ft 507 kts
2026-02-17 12:08 39.44884 140.70271 39183 ft 507 kts
2026-02-17 12:08 39.51717 140.72534 39185 ft 507 kts
2026-02-17 12:09 39.58560 140.74799 39183 ft 507 kts
2026-02-17 12:09 39.65410 140.77071 39177 ft 507 kts
2026-02-17 12:10 39.72237 140.79343 39182 ft 507 kts
2026-02-17 12:10 39.79036 140.81608 39179 ft 507 kts
2026-02-17 12:11 39.89294 140.85038 39179 ft 508 kts
2026-02-17 12:11 39.96136 140.87341 39175 ft 508 kts
2026-02-17 12:12 40.02983 140.89650 39174 ft 508 kts
2026-02-17 12:12 40.09790 140.91949 39169 ft 507 kts
2026-02-17 12:13 40.16638 140.94215 39170 ft 504 kts
2026-02-17 12:13 40.23488 140.95311 39163 ft 488 kts 352°
2026-02-17 12:14 40.30270 140.95486 39172 ft 487 kts 351°
2026-02-17 12:15 40.40411 140.95738 39169 ft 489 kts 352°
2026-02-17 12:15 40.47227 140.95968 39164 ft 490 kts 352°
2026-02-17 12:16 40.54043 140.96210 39149 ft 490 kts 352°
2026-02-17 12:16 40.60869 140.96449 39137 ft 490 kts 352°
2026-02-17 12:17 40.67685 140.96684 39121 ft 490 kts 352°
2026-02-17 12:17 40.74506 140.96920 39142 ft 490 kts 352°
2026-02-17 12:18 40.81328 140.97148 39137 ft 490 kts 352°
2026-02-17 12:18 40.88152 140.97373 39146 ft 490 kts 352°
2026-02-17 12:19 40.98386 140.97712 39147 ft 489 kts 352°
2026-02-17 12:19 41.05153 140.97943 39006 ft 482 kts 352°
2026-02-17 12:20 41.08491 140.98057 38652 ft 477 kts 352°
2026-02-17 12:20 41.11747 140.98167 38225 ft 472 kts 352°
2026-02-17 12:20 41.15008 140.98276 37824 ft 466 kts 353°
2026-02-17 12:20 41.18231 140.98382 37421 ft 461 kts 353°
2026-02-17 12:21 41.21420 140.98487 37032 ft 456 kts 353°
2026-02-17 12:21 41.24575 140.98592 36652 ft 451 kts 353°
2026-02-17 12:21 41.27701 140.98742 36266 ft 450 kts 357°
2026-02-17 12:21 41.30814 140.99291 35884 ft 452 kts
2026-02-17 12:22 41.33887 141.00230 35492 ft 454 kts
2026-02-17 12:22 41.36892 141.01595 35104 ft 455 kts 14°
2026-02-17 12:22 41.39844 141.03109 34715 ft 453 kts 15°
2026-02-17 12:23 41.45695 141.06059 33870 ft 447 kts 14°
2026-02-17 12:23 41.48604 141.07491 33430 ft 443 kts 15°
2026-02-17 12:23 41.51483 141.08912 33044 ft 439 kts 15°
2026-02-17 12:23 41.54334 141.10321 32666 ft 435 kts 15°
2026-02-17 12:24 41.57165 141.11723 32283 ft 431 kts 15°
2026-02-17 12:24 41.59965 141.13111 31913 ft 427 kts 15°
2026-02-17 12:24 41.62741 141.14488 31538 ft 424 kts 15°
2026-02-17 12:24 41.65459 141.15837 31180 ft 421 kts 15°
2026-02-17 12:25 41.68228 141.17214 30812 ft 417 kts 15°
2026-02-17 12:25 41.70898 141.18550 30465 ft 415 kts 16°
2026-02-17 12:25 41.73625 141.19924 30084 ft 412 kts 16°
2026-02-17 12:25 41.76265 141.21259 29657 ft 408 kts 16°
2026-02-17 12:26 41.78908 141.22596 29271 ft 404 kts 16°
2026-02-17 12:26 41.81523 141.23919 28871 ft 400 kts 16°
2026-02-17 12:26 41.84118 141.25231 28496 ft 396 kts 16°
2026-02-17 12:27 41.89224 141.27815 27732 ft 389 kts 17°
2026-02-17 12:27 41.91748 141.29105 27352 ft 386 kts 17°
2026-02-17 12:27 41.94241 141.30435 26970 ft 385 kts 21°
2026-02-17 12:27 41.96583 141.32172 26599 ft 385 kts 30°
2026-02-17 12:28 41.98746 141.34282 26233 ft 384 kts 39°
2026-02-17 12:28 42.00684 141.36669 25886 ft 382 kts 42°
2026-02-17 12:28 42.02587 141.39146 25524 ft 380 kts 43°
2026-02-17 12:28 42.04473 141.41618 25175 ft 377 kts 43°
2026-02-17 12:29 42.06350 141.44064 24826 ft 375 kts 43°
2026-02-17 12:29 42.08228 141.46491 24481 ft 373 kts 43°
2026-02-17 12:29 42.10101 141.48900 24135 ft 371 kts 43°
2026-02-17 12:29 42.11970 141.51302 23796 ft 370 kts 43°
2026-02-17 12:30 42.13856 141.53627 23399 ft 367 kts 38°
2026-02-17 12:30 42.15869 141.55729 23031 ft 363 kts 34°
2026-02-17 12:30 42.17912 141.57719 22697 ft 360 kts 34°
2026-02-17 12:31 42.21987 141.61676 22007 ft 365 kts 34°
2026-02-17 12:31 42.24059 141.63722 21655 ft 373 kts 35°
2026-02-17 12:31 42.26128 141.65787 21299 ft 376 kts 35°
2026-02-17 12:31 42.28219 141.67887 20923 ft 373 kts 35°
2026-02-17 12:32 42.30293 141.69979 20555 ft 371 kts 35°
2026-02-17 12:32 42.32352 141.72059 20189 ft 368 kts 35°
2026-02-17 12:32 42.34396 141.74126 19829 ft 366 kts 35°
2026-02-17 12:32 42.36433 141.76185 19457 ft 364 kts 35°
2026-02-17 12:33 42.38451 141.78226 19102 ft 362 kts 35°
2026-02-17 12:33 42.40466 141.80267 18731 ft 360 kts 35°
2026-02-17 12:33 42.42464 141.82293 18357 ft 358 kts 35°
2026-02-17 12:33 42.44451 141.84311 17946 ft 356 kts 35°
2026-02-17 12:34 42.46424 141.86316 17556 ft 353 kts 35°
2026-02-17 12:34 42.48378 141.88305 17186 ft 350 kts 35°
2026-02-17 12:34 42.50324 141.90284 16810 ft 348 kts 35°
2026-02-17 12:35 42.54178 141.94112 16047 ft 336 kts 26°
2026-02-17 12:35 42.56318 141.95075 15703 ft 324 kts
2026-02-17 12:35 42.58524 141.95023 15335 ft 314 kts 347°
2026-02-17 12:35 42.60666 141.94563 14970 ft 310 kts 345°
2026-02-17 12:36 42.62792 141.94062 14603 ft 309 kts 345°
2026-02-17 12:36 42.64904 141.93567 14235 ft 307 kts 345°
2026-02-17 12:36 42.67014 141.93083 13854 ft 306 kts 345°
2026-02-17 12:36 42.69112 141.92613 13445 ft 305 kts 346°
2026-02-17 12:37 42.71196 141.92152 13054 ft 303 kts 346°
2026-02-17 12:37 42.73285 141.91695 12622 ft 303 kts 346°
2026-02-17 12:37 42.75365 141.91241 12223 ft 302 kts 346°
2026-02-17 12:37 42.77441 141.90787 11782 ft 302 kts 346°
2026-02-17 12:38 42.79532 141.90329 11264 ft 306 kts 346°
2026-02-17 12:38 42.81642 141.89866 10742 ft 309 kts 346°
2026-02-17 12:38 42.83765 141.89402 10306 ft 309 kts 346°
2026-02-17 12:39 42.87982 141.88480 9447 ft 307 kts 347°
2026-02-17 12:39 42.90046 141.88030 9354 ft 294 kts 346°
2026-02-17 12:39 42.92029 141.87598 9255 ft 283 kts 346°
2026-02-17 12:39 42.93943 141.87179 9109 ft 274 kts 346°
2026-02-17 12:40 42.95828 141.86766 8892 ft 268 kts 346°
2026-02-17 12:40 42.97613 141.86373 8458 ft 260 kts 346°
2026-02-17 12:40 42.99375 141.85985 8020 ft 252 kts 346°
2026-02-17 12:40 43.01074 141.85611 7630 ft 243 kts 346°
2026-02-17 12:41 43.02716 141.85250 7225 ft 235 kts 346°
2026-02-17 12:41 43.04315 141.84897 6757 ft 231 kts 346°
2026-02-17 12:41 43.05895 141.84547 6245 ft 230 kts 346°
2026-02-17 12:41 43.07391 141.83872 5699 ft 226 kts 320°
2026-02-17 12:42 43.08322 141.82237 5402 ft 216 kts 287°
2026-02-17 12:42 43.08462 141.80236 5142 ft 211 kts 260°
2026-02-17 12:42 43.07994 141.78405 4991 ft 200 kts 238°
2026-02-17 12:43 43.06371 141.75623 4811 ft 177 kts 232°
2026-02-17 12:43 43.05594 141.74350 4584 ft 173 kts 231°
2026-02-17 12:43 43.04829 141.73088 4301 ft 172 kts 231°
2026-02-17 12:43 43.04069 141.71827 4034 ft 171 kts 231°
2026-02-17 12:44 43.03314 141.70572 3745 ft 171 kts 231°
2026-02-17 12:44 43.02569 141.69331 3540 ft 168 kts 230°
2026-02-17 12:44 43.01833 141.68103 3366 ft 166 kts 230°
2026-02-17 12:44 43.01108 141.66898 3289 ft 162 kts 227°
2026-02-17 12:45 43.00185 141.66043 3220 ft 164 kts 204°
2026-02-17 12:45 42.99105 141.65523 3173 ft 169 kts 189°
2026-02-17 12:45 42.97920 141.65550 3112 ft 171 kts 179°
2026-02-17 12:45 42.96742 141.65679 3049 ft 168 kts 177°
2026-02-17 12:46 42.95587 141.65856 3003 ft 166 kts 176°
2026-02-17 12:46 42.94459 141.66047 2997 ft 165 kts 176°
2026-02-17 12:46 42.93325 141.66246 2993 ft 165 kts 175°
2026-02-17 12:47 42.91016 141.66655 2669 ft 168 kts 175°
2026-02-17 12:47 42.89880 141.66858 2442 ft 159 kts 174°
2026-02-17 12:47 42.88835 141.67045 2211 ft 145 kts 174°
2026-02-17 12:47 42.87860 141.67217 2011 ft 140 kts 174°
2026-02-17 12:48 42.86919 141.67383 1840 ft 132 kts 174°
2026-02-17 12:48 42.86021 141.67541 1654 ft 130 kts 174°
2026-02-17 12:48 42.85116 141.67701 1452 ft 131 kts 173°
2026-02-17 12:48 42.84214 141.67861 1237 ft 131 kts 173°
2026-02-17 12:49 42.83307 141.68022 1039 ft 133 kts 172°
2026-02-17 12:49 42.82385 141.68186 833 ft 134 kts 172°
2026-02-17 12:49 42.81459 141.68340 610 ft 134 kts 173°
2026-02-17 12:49 42.80556 141.68480 427 ft 132 kts 170°
2026-02-17 12:50 42.79635 141.68661 265 ft 135 kts 169°
2026-02-17 12:50 42.78703 141.68831 112 ft 135 kts 171°
2026-02-17 12:50 42.77807 141.68988 64 ft 117 kts 172°
2026-02-17 12:51 42.77013 141.69133 68 ft 22 kts 173°
2026-02-17 12:51 42.76857 141.69128 65 ft 22 kts 190°
2026-02-17 12:51 42.76761 141.69092 66 ft 15 kts 200°
2026-02-17 12:51 42.76703 141.69051 67 ft 9 kts 225°
2026-02-17 12:52 42.76707 141.68973 62 ft 9 kts 316°
2026-02-17 12:52 42.76765 141.68949 65 ft 8 kts 351°
2026-02-17 12:52 42.76820 141.68938 67 ft 8 kts 353°
2026-02-17 12:52 42.76875 141.68929 66 ft 8 kts 353°
2026-02-17 12:53 42.76931 141.68919 65 ft 8 kts 353°
2026-02-17 12:53 42.76986 141.68910 67 ft 8 kts 353°
2026-02-17 12:53 42.77041 141.68900 67 ft 8 kts 353°
2026-02-17 12:53 42.77096 141.68890 68 ft 8 kts 353°
2026-02-17 12:54 42.77152 141.68881 66 ft 8 kts 353°
2026-02-17 12:54 42.77207 141.68871 65 ft 8 kts 353°
2026-02-17 12:54 42.77262 141.68862 65 ft 8 kts 353°
2026-02-17 12:55 42.77372 141.68843 63 ft 8 kts 353°
2026-02-17 12:55 42.77427 141.68834 64 ft 8 kts 353°
2026-02-17 12:55 42.77482 141.68825 67 ft 8 kts 353°
2026-02-17 12:55 42.77538 141.68814 67 ft 8 kts 351°
2026-02-17 12:56 42.77593 141.68803 68 ft 8 kts 352°
2026-02-17 12:56 42.77648 141.68793 67 ft 8 kts 353°
2026-02-17 12:56 42.77703 141.68783 67 ft 8 kts 353°
2026-02-17 12:56 42.77758 141.68774 65 ft 8 kts 352°
2026-02-17 12:57 42.77814 141.68764 67 ft 8 kts 353°
2026-02-17 12:57 42.77869 141.68755 66 ft 8 kts 353°
2026-02-17 12:57 42.77924 141.68746 65 ft 8 kts 353°
2026-02-17 12:57 42.77980 141.68737 65 ft 8 kts 353°
2026-02-17 12:58 42.78035 141.68727 64 ft 8 kts 353°
2026-02-17 12:58 42.78092 141.68718 67 ft 9 kts 353°
2026-02-17 12:58 42.78157 141.68707 66 ft 10 kts 353°
2026-02-17 12:59 42.78323 141.68674 67 ft 14 kts 343°
2026-02-17 12:59 42.78397 141.68587 66 ft 15 kts 298°
2026-02-17 12:59 42.78468 141.68476 62 ft 17 kts 334°
2026-02-17 12:59 42.78588 141.68443 65 ft 19 kts 351°
2026-02-17 13:00 42.78723 141.68418 67 ft 19 kts 352°
2026-02-17 13:00 42.78788 141.68366 69 ft 11 kts 283°
2026-02-17 13:00 42.78786 141.68286 72 ft 2 kts 264°
2026-02-17 13:00 42.78786 141.68280 72 ft 0 kts 263°